Location: Quebec
(46.8000°N, 71.2500°W)
Time: 05:27:05
(UTC-04:00)

Tiangong 1 - Pass Details

Date: 08 October 2017
Orbit: 294 x 320 km, 42.8° (Epoch: 17 October)

Event Time Altitude Azimuth Distance (km) Brightness Sun altitude
Rises 18:59:14 0° 241° (WSW) 2,037 5.9 -9.1°
Reaches altitude 10° 19:01:23 10° 227° (SW) 1,203 4.3 -9.5°
Maximum altitude 19:03:42 26° 168° (SSE) 662 2.1 -9.9°
Enters shadow 19:05:18 15° 118° (ESE) 958 2.5 -10.2°
